This is the latest recevied weather packets stored in our database for station/object OE2ATN. If no packets are shown the sender has not sent any weather packets the latest 1 day(s).
| Time | Temp. | Humidity | Pressure | Rain* | Wind** | Luminosity | Snow |
|---|---|---|---|---|---|---|---|
| 1778061626 | 19.44° C | 40% | 1013.5 hPa | 0 mm | - | - | - |
| 1778060724 | 18.89° C | 42% | 1013.8 hPa | 0 mm | - | - | - |
| 1778060424 | 18.89° C | 42% | 1013.8 hPa | 0 mm | - | - | - |
| 1778059824 | 18.33° C | 50% | 1014 hPa | 0 mm | - | - | - |
| 1778059524 | 18.33° C | 52% | 1014.2 hPa | 0 mm | - | - | - |
| 1778059225 | 17.78° C | 52% | 1014 hPa | 0 mm | - | - | - |
| 1778058924 | 17.78° C | 51% | 1014 hPa | 0 mm | - | - | - |
| 1778058624 | 16.67° C | 54% | 1014 hPa | 0 mm | - | - | - |
| 1778058323 | 16.11° C | 67% | 1014 hPa | 0 mm | - | - | - |
| 1778057424 | 14.44° C | 71% | 1014.3 hPa | 0 mm | - | - | - |
| 1778056824 | 13.89° C | 71% | 1014.3 hPa | 0 mm | - | - | - |
| 1778056523 | 13.33° C | 73% | 1014.4 hPa | 0 mm | - | - | - |
| 1778056223 | 13.33° C | 72% | 1014.5 hPa | 0 mm | - | - | - |
| 1778055923 | 12.78° C | 72% | 1014.5 hPa | 0 mm | - | - | - |
| 1778054723 | 12.22° C | 74% | 1014.7 hPa | 0 mm | - | - | - |
| 1778054422 | 11.67° C | 73% | 1014.6 hPa | 0 mm | - | - | - |
| 1778053522 | 11.67° C | 73% | 1014.8 hPa | 0 mm | - | - | - |
| 1778053222 | 11.67° C | 75% | 1014.8 hPa | 0 mm | - | - | - |
| 1778052922 | 11.67° C | 74% | 1015 hPa | 0 mm | - | - | - |
| 1778051722 | 11.11° C | 75% | 1015.2 hPa | 0 mm | - | - | - |
| 1778051421 | 11.11° C | 75% | 1015.3 hPa | 0 mm | - | - | - |
| 1778051123 | 11.11° C | 74% | 1015.3 hPa | 0 mm | - | - | - |
| 1778050521 | 11.11° C | 74% | 1015.4 hPa | 0 mm | - | - | - |
| 1778050221 | 10.56° C | 75% | 1015.7 hPa | 0 mm | - | - | - |
| 1778049921 | 10.56° C | 74% | 1015.6 hPa | 0 mm | - | - | - |
* Rain latest hour (hover to see other rain measurements)
** Current wind speed in m/s (hover to see current wind gust speed)